Location: Austin
(30.3000°N, 97.7500°W)
Time: 01:13:59
(UTC-05:00)

Cosmos 1943 Rocket - Pass Details

Date: 15 May 2024
Orbit: 810 x 845 km, 71.0° (Epoch: 19 May)

Event Time Altitude Azimuth Distance (km) Brightness Sun altitude
Rises 23:35:09 0° 330° (NNW) 3,400 6.4 -33.6°
Reaches altitude 10° 23:37:45 10° 322° (NW) 2,459 5.4 -33.9°
Enters shadow 23:41:41 34° 285° (WNW) 1,358 3.5 -34.3°
